Powrót do katalogu

FENGYUN 1C DEB

AktywnySSO
NORAD 31815·DEBRIS·🇨🇳 China

Wystrzelony May 10, 1999 z Taiyuan Satellite Launch Center

Loading…

Następne Przeloty (najbliższe 24 godziny)

TLE

ŚwieżeSource: Space-Track

Epoka: Sep 12, 2026, 16:11 UTC

1 31815U 99025CHD 26255.67491808  .00000066  00000-0  60752-4 0  9992
2 31815  98.7943 240.6209 0058233 327.1602  32.5956 14.10330839994009

Śledź FENGYUN 1C DEB w czasie rzeczywistym z AllMySat

Download on the App Store